• In Hungary
  • List of Countries
  • For 7 days
  • Water Temperature
  • Satellite Maps
  • Weather Map
  • News
  • Weather Widgets
  • user-avatar
    Login

    Hourly Weather Stobiecin

    Today, 26 September, Wednesday

    Time Temperature Precipitation Wind Pressure Humidity
    00:00 +5°C° 0 mm 2 mps 767 mmHg 63%
    01:00 +5°C° 0 mm 2 mps 767 mmHg 63%
    02:00 +5°C° 0 mm 2 mps 767 mmHg 66%
    03:00 +4°C° 0 mm 2 mps 767 mmHg 68%
    04:00 +3°C° 0 mm 3 mps 767 mmHg 71%
    05:00 +4°C° 0 mm 3 mps 767 mmHg 72%
    06:00 +5°C° 0 mm 4 mps 767 mmHg 72%
    07:00 +5°C° 0 mm 5 mps 767 mmHg 71%
    08:00 +7°C° 0 mm 5 mps 767 mmHg 64%
    09:00 +9°C° 0 mm 6 mps 766 mmHg 57%
    10:00 +10°C° 0 mm 6 mps 766 mmHg 50%
    11:00 +11°C° 0 mm 7 mps 765 mmHg 49%
    12:00 +11°C° 0 mm 7 mps 765 mmHg 48%
    13:00 +12°C° 0 mm 7 mps 764 mmHg 46%
    14:00 +11°C° 0.2 mm 7 mps 763 mmHg 52%
    15:00 +10°C° 0.2 mm 6 mps 763 mmHg 57%
    16:00 +9°C° 0.2 mm 6 mps 762 mmHg 63%
    17:00 +9°C° 0.3 mm 6 mps 762 mmHg 63%
    18:00 +9°C° 0.3 mm 6 mps 761 mmHg 64%
    19:00 +9°C° 0.3 mm 6 mps 761 mmHg 64%
    20:00 +10°C° 0.1 mm 6 mps 760 mmHg 62%
    21:00 +10°C° 0.1 mm 7 mps 760 mmHg 59%
    22:00 +10°C° 0.1 mm 7 mps 760 mmHg 57%
    23:00 +11°C° 0.1 mm 7 mps 759 mmHg 59%

    Tomorrow, 27 September, Thursday

    Time Temperature Precipitation Wind Pressure Humidity
    00:00 +11°C° 0.1 mm 7 mps 759 mmHg 62%
    01:00 +11°C° 0.1 mm 7 mps 759 mmHg 64%
    02:00 +11°C° 0 mm 7 mps 758 mmHg 65%
    03:00 +11°C° 0 mm 7 mps 758 mmHg 67%
    04:00 +11°C° 0 mm 7 mps 758 mmHg 68%
    05:00 +11°C° 0 mm 7 mps 758 mmHg 71%
    06:00 +11°C° 0 mm 7 mps 758 mmHg 73%
    07:00 +11°C° 0 mm 7 mps 758 mmHg 76%
    08:00 +14°C° 0 mm 7 mps 759 mmHg 75%
    09:00 +15°C° 0 mm 7 mps 759 mmHg 74%
    10:00 +16°C° 0 mm 7 mps 759 mmHg 73%
    11:00 +17°C° 0 mm 7 mps 759 mmHg 71%
    12:00 +19°C° 0 mm 6 mps 759 mmHg 69%
    13:00 +19°C° 0 mm 6 mps 759 mmHg 67%
    14:00 +19°C° 0 mm 6 mps 759 mmHg 67%
    15:00 +19°C° 0 mm 5 mps 758 mmHg 68%
    16:00 +19°C° 0 mm 4 mps 758 mmHg 69%
    17:00 +18°C° 0 mm 4 mps 758 mmHg 75%
    18:00 +15°C° 0 mm 4 mps 758 mmHg 80%
    19:00 +14°C° 0 mm 3 mps 757 mmHg 86%
    20:00 +14°C° 0 mm 3 mps 757 mmHg 87%
    21:00 +14°C° 0 mm 3 mps 757 mmHg 88%
    22:00 +14°C° 0 mm 4 mps 756 mmHg 89%
    23:00 +14°C° 0 mm 4 mps 755 mmHg 88%

    Day after tomorrow, 28 September, Friday

    Time Temperature Precipitation Wind Pressure Humidity
    00:00 +14°C° 0 mm 5 mps 755 mmHg 87%
    01:00 +14°C° 0 mm 5 mps 754 mmHg 86%
    02:00 +14°C° 0 mm 5 mps 753 mmHg 84%
    03:00 +14°C° 0 mm 6 mps 753 mmHg 81%
    04:00 +14°C° 0 mm 6 mps 752 mmHg 79%
    05:00 +14°C° 0 mm 6 mps 752 mmHg 78%
    06:00 +14°C° 0 mm 6 mps 752 mmHg 77%
    07:00 +14°C° 0 mm 6 mps 752 mmHg 76%
    08:00 +15°C° 0 mm 6 mps 752 mmHg 74%
    09:00 +15°C° 0 mm 6 mps 753 mmHg 71%
    10:00 +16°C° 0 mm 6 mps 753 mmHg 68%
    11:00 +16°C° 0 mm 6 mps 753 mmHg 66%
    12:00 +15°C° 0 mm 5 mps 753 mmHg 63%
    13:00 +15°C° 0 mm 5 mps 753 mmHg 60%
    14:00 +15°C° 0 mm 5 mps 753 mmHg 57%
    15:00 +15°C° 0 mm 5 mps 754 mmHg 55%
    16:00 +15°C° 0 mm 4 mps 754 mmHg 52%
    17:00 +14°C° 0 mm 4 mps 754 mmHg 55%
    18:00 +12°C° 0 mm 4 mps 755 mmHg 58%
    19:00 +11°C° 0 mm 3 mps 755 mmHg 62%
    20:00 +11°C° 0 mm 3 mps 755 mmHg 64%
    21:00 +10°C° 0 mm 3 mps 756 mmHg 67%
    22:00 +10°C° 0 mm 2 mps 756 mmHg 69%
    23:00 +9°C° 0 mm 2 mps 756 mmHg 72%

    29 September, Saturday

    Time Temperature Precipitation Wind Pressure Humidity
    00:00 +9°C° 0 mm 2 mps 757 mmHg 75%
    01:00 +9°C° 0 mm 2 mps 757 mmHg 78%
    02:00 +8°C° 0 mm 2 mps 757 mmHg 79%
    03:00 +7°C° 0 mm 2 mps 758 mmHg 79%
    04:00 +7°C° 0 mm 2 mps 758 mmHg 80%
    05:00 +7°C° 0 mm 2 mps 758 mmHg 77%
    06:00 +7°C° 0 mm 3 mps 759 mmHg 75%
    07:00 +7°C° 0 mm 3 mps 759 mmHg 73%
    08:00 +9°C° 0 mm 3 mps 760 mmHg 63%
    09:00 +11°C° 0 mm 3 mps 760 mmHg 54%
    10:00 +12°C° 0 mm 4 mps 760 mmHg 45%
    11:00 +13°C° 0 mm 4 mps 761 mmHg 43%
    12:00 +13°C° 0 mm 4 mps 761 mmHg 40%
    13:00 +13°C° 0 mm 4 mps 761 mmHg 38%
    14:00 +13°C° 0 mm 4 mps 761 mmHg 39%
    15:00 +13°C° 0 mm 3 mps 761 mmHg 40%
    16:00 +13°C° 0 mm 3 mps 761 mmHg 41%
    17:00 +12°C° 0 mm 2 mps 761 mmHg 45%
    18:00 +10°C° 0 mm 2 mps 762 mmHg 49%
    19:00 +9°C° 0 mm 1 mps 762 mmHg 53%
    20:00 +9°C° 0 mm 1 mps 762 mmHg 54%
    21:00 +9°C° 0 mm 1 mps 762 mmHg 56%
    22:00 +8°C° 0 mm 1 mps 763 mmHg 57%
    23:00 +8°C° 0 mm 1 mps 763 mmHg 58%

    30 September, Sunday

    Time Temperature Precipitation Wind Pressure Humidity
    00:00 +8°C° 0 mm 1 mps 763 mmHg 59%
    01:00 +7°C° 0 mm 1 mps 763 mmHg 60%
    02:00 +6°C° 0 mm 2 mps 762 mmHg 61%
    03:00 +6°C° 0 mm 2 mps 762 mmHg 62%
    04:00 +5°C° 0 mm 2 mps 762 mmHg 62%
    05:00 +6°C° 0 mm 2 mps 762 mmHg 62%
    06:00 +6°C° 0 mm 2 mps 762 mmHg 62%
    07:00 +7°C° 0 mm 2 mps 762 mmHg 61%
    08:00 +9°C° 0 mm 3 mps 762 mmHg 55%
    09:00 +10°C° 0 mm 3 mps 762 mmHg 50%
    10:00 +12°C° 0 mm 3 mps 761 mmHg 44%
    11:00 +13°C° 0 mm 3 mps 761 mmHg 41%
    12:00 +14°C° 0 mm 3 mps 760 mmHg 39%
    13:00 +14°C° 0 mm 3 mps 760 mmHg 36%
    14:00 +15°C° 0 mm 2 mps 759 mmHg 38%
    15:00 +15°C° 0 mm 2 mps 759 mmHg 40%
    16:00 +15°C° 0 mm 2 mps 758 mmHg 42%
    17:00 +13°C° 0 mm 2 mps 758 mmHg 45%
    18:00 +12°C° 0 mm 2 mps 758 mmHg 48%
    19:00 +9°C° 0 mm 2 mps 758 mmHg 51%
    20:00 +9°C° 0 mm 2 mps 757 mmHg 53%
    21:00 +8°C° 0 mm 2 mps 757 mmHg 55%
    22:00 +8°C° 0 mm 3 mps 757 mmHg 56%
    23:00 +7°C° 0 mm 2 mps 756 mmHg 58%

    1 October, Monday

    Time Temperature Precipitation Wind Pressure Humidity
    00:00 +7°C° 0 mm 2 mps 756 mmHg 61%
    01:00 +6°C° 0 mm 2 mps 756 mmHg 63%
    02:00 +6°C° 0 mm 2 mps 755 mmHg 66%
    03:00 +6°C° 0 mm 2 mps 755 mmHg 69%
    04:00 +5°C° 0 mm 2 mps 754 mmHg 73%
    05:00 +5°C° 0 mm 3 mps 754 mmHg 73%
    06:00 +5°C° 0 mm 3 mps 753 mmHg 74%
    07:00 +5°C° 0 mm 3 mps 753 mmHg 74%
    08:00 +8°C° 0 mm 3 mps 752 mmHg 66%
    09:00 +11°C° 0 mm 3 mps 752 mmHg 59%
    10:00 +13°C° 0 mm 3 mps 752 mmHg 51%
    11:00 +14°C° 0 mm 3 mps 751 mmHg 49%
    12:00 +17°C° 0 mm 3 mps 751 mmHg 47%
    13:00 +18°C° 0 mm 4 mps 750 mmHg 45%
    14:00 +18°C° 0 mm 3 mps 750 mmHg 48%
    15:00 +17°C° 0 mm 2 mps 750 mmHg 52%
    16:00 +18°C° 0 mm 1 mps 749 mmHg 55%
    17:00 +16°C° 0 mm 1 mps 749 mmHg 57%
    18:00 +15°C° 0 mm 1 mps 749 mmHg 59%
    19:00 +14°C° 0 mm 2 mps 749 mmHg 61%
    20:00 +13°C° 0 mm 2 mps 750 mmHg 63%
    21:00 +12°C° 0 mm 2 mps 750 mmHg 66%
    22:00 +12°C° 0 mm 2 mps 750 mmHg 69%
    23:00 +10°C° 0 mm 2 mps 750 mmHg 68%
    Show more